Location: Newark
(50.0953°N, 2.1719°E)
Time: 19:17:56
(UTC+00:00)

N. Korean satellite - Pass Details

Date: 21 January 2020
Orbit: 456 x 505 km, 97.2° (Epoch: 26 February)

Event Time Altitude Azimuth Distance (km) Brightness Sun altitude
Rises 18:04:48 0° 219° (SW) 2,469 11.0 -15.5°
Reaches altitude 10° 18:08:46 10° 266° (W) 1,602 10.5 -16.1°
Maximum altitude 18:09:09 10° 272° (W) 1,594 10.4 -16.2°
Drops below altitude 10° 18:09:33 10° 279° (W) 1,604 10.3 -16.2°
Sets 18:13:33 0° 326° (NW) 2,490 10.5 -16.9°
